Location: Bazinghen
(50.8246°N, 1.6616°E)
Time: 09:24:48
(UTC+00:00)

Cosmos 2344 - Pass Details

Date: 09 April 2020
Orbit: 1251 x 2991 km, 63.3° (Epoch: 24 May)

Event Time Altitude Azimuth Distance (km) Brightness Sun altitude
Rises 22:22:28 0° 315° (NW) 4,576 7.6 -27.9°
Reaches altitude 10° 22:25:04 10° 314° (NW) 3,732 6.9 -28.0°
Maximum altitude 22:34:26 78° 231° (SW) 1,945 4.3 -28.6°
Enters shadow 22:38:41 47° 156° (SSE) 2,592 4.6 -28.9°
